Wind_Speed
8 10 12 7 3 3 1 2 2 3 3 8 5 2 12 8 5 5 5 10 22 25 28 27 17 8 8 8 9 7 13 15 14 12 11 12 13 13 12 13 14 13 11 11 15 14 13 15 14
9 12 10 3 3 2 2 2 2 4 5 7 4 4 6 5 8 5 8 19 25 27 25 24 20 6 9 12 11 6 9 12 15 15 14 14 15 16 16 15 15 15 15 13 14 15 14 15 14
13 13 4 4 3 4 4 1 2 6 2 7 4 10 4 3 4 5 15 21 23 23 24 24 25 16 1 6 14 12 14 14 13 16 16 14 15 16 18 18 16 19 18 17 15 16 13 14 14
10 6 5 3 4 1 3 1 3 6 2 11 4 8 7 6 4 11 19 21 22 23 22 22 24 22 8 6 9 12 18 18 16 15 18 15 14 14 16 17 18 22 21 19 18 18 14 14 15
12 4 3 3 2 3 2 1 1 2 2 6 4 4 9 6 6 16 20 22 23 24 24 23 22 24 20 9 9 14 13 19 19 19 16 18 14 14 15 17 21 22 22 20 22 20 16 15 16
3 3 3 4 5 3 2 2 3 1 3 2 4 3 6 7 7 18 21 24 25 26 25 24 23 22 22 20 10 11 16 16 21 22 20 19 19 17 16 18 21 25 24 20 22 19 16 16 17
4 3 3 5 8 5 5 2 3 0 1 3 3 2 1 6 15 20 23 25 27 28 27 26 24 24 22 21 19 14 14 18 17 22 23 22 20 20 19 20 23 26 24 23 22 19 17 18 17
4 3 4 2 7 4 4 6 5 2 2 3 4 3 1 13 20 22 24 25 27 27 27 28 26 24 25 25 23 21 16 16 20 19 25 25 23 23 23 24 24 25 26 24 24 19 17 18 18
4 3 3 7 7 5 4 4 3 1 3 1 3 4 6 14 19 23 24 23 24 26 29 27 29 29 25 25 28 26 22 18 18 20 19 18 25 26 25 28 29 28 27 26 24 21 20 22 18
4 2 4 2 2 4 5 2 2 3 2 2 2 5 10 15 21 25 27 30 30 30 31 34 32 31 31 28 28 31 28 23 21 18 19 23 19 29 29 30 30 31 29 28 25 24 25 21 20
4 2 3 3 5 6 6 3 2 1 2 3 3 9 13 18 22 24 26 29 32 32 31 33 36 34 34 32 30 30 32 30 23 21 19 23 27 24 32 32 32 35 35 30 26 27 25 23 19
6 6 4 5 4 4 5 4 2 6 2 3 4 8 12 16 19 23 26 28 31 32 33 33 33 35 35 35 34 32 32 32 30 23 21 22 25 33 39 36 35 36 38 34 34 32 28 25 21
5 4 7 7 7 5 3 4 3 6 6 4 4 7 12 14 17 20 23 25 28 31 33 34 36 36 35 34 34 34 33 33 32 29 23 22 27 26 39 38 39 39 39 38 37 32 31 28 26
4 11 10 5 4 3 2 1 3 4 9 4 5 9 9 12 16 19 21 24 28 31 34 37 38 38 37 36 33 33 33 33 33 30 27 24 25 28 26 35 40 42 43 40 36 34 35 30 27
9 5 2 2 4 0 6 1 6 8 6 4 8 9 10 11 13 18 22 26 30 33 36 38 40 38 38 38 37 34 32 33 32 31 30 26 26 31 31 24 49 42 44 42 39 38 36 33 31
4 3 2 1 3 2 4 3 5 8 5 8 11 11 12 12 13 15 20 25 29 34 37 39 38 38 36 36 38 37 32 33 32 30 31 30 29 27 28 36 43 44 44 46 43 42 40 38 34
3 3 2 1 2 3 0 3 3 7 6 18 15 13 13 14 12 15 20 26 32 34 35 35 34 35 37 36 37 37 35 32 32 31 32 32 35 30 36 35 41 42 53 53 44 45 44 43 38
3 2 2 3 2 1 3 12 10 18 12 16 19 18 16 15 13 15 21 27 31 32 33 33 32 34 36 38 36 37 34 33 32 32 34 34 36 34 36 37 40 51 51 50 51 49 45 44 42
6 3 1 2 3 3 2 11 16 18 12 18 21 19 16 17 15 16 21 29 30 32 32 31 31 32 35 38 36 36 35 32 33 32 35 37 37 36 38 39 28 59 55 53 54 48 47 48 45
5 2 2 2 2 3 6 21 17 10 6 13 18 16 16 19 18 18 22 29 30 32 30 29 30 31 34 35 34 34 36 34 35 33 36 39 37 35 38 41 30 51 56 57 61 52 48 51 50
1 1 1 1 7 1 9 8 4 3 3 10 17 15 19 22 21 20 24 28 31 29 28 28 30 31 33 32 34 34 34 35 36 35 37 38 36 37 38 40 35 38 55 50 50 52 53 47 54
2 2 2 4 4 3 3 5 3 3 6 6 13 17 20 20 19 18 24 28 30 28 27 28 29 29 31 30 31 32 34 36 35 36 37 36 36 38 38 41 45 26 62 62 55 54 54 53 56
2 3 3 3 2 3 1 2 6 1 4 6 8 12 12 12 11 17 23 26 27 26 27 27 27 27 29 28 28 31 34 35 37 36 36 34 35 37 37 36 41 47 56 60 55 59 60 57 58
4 3 3 3 2 1 1 2 5 5 6 4 6 9 10 10 15 19 23 24 25 25 24 24 26 27 28 27 27 28 32 33 35 34 32 33 34 35 32 38 37 43 44 55 56 58 58 57 57
3 1 3 4 3 3 2 2 9 6 6 6 8 16 15 14 15 19 21 22 25 25 23 24 26 28 28 27 26 27 28 30 32 32 29 28 33 37 27 29 33 35 45 63 60 63 62 60 58
1 4 4 5 3 3 2 6 5 6 7 11 17 20 16 12 13 17 18 20 23 24 22 23 25 28 29 26 26 26 25 27 29 28 27 25 29 38 26 28 31 29 32 68 67 65 63 66 64
3 1 2 6 2 1 2 7 10 4 7 8 12 8 12 12 14 16 17 19 21 22 21 22 24 27 28 26 26 25 23 22 25 26 26 22 23 35 30 25 27 46 36 54 66 65 67 69 66
1 3 3 3 1 5 4 6 4 3 5 5 5 9 14 14 14 15 15 18 20 20 19 19 21 25 27 26 26 25 22 20 21 22 22 18 22 34 32 24 21 34 49 35 65 65 63 68 63
2 1 5 3 1 3 3 6 8 9 8 7 7 13 17 15 13 13 14 16 19 19 18 19 21 24 27 25 26 25 21 17 14 16 15 13 24 30 28 22 22 26 40 41 52 60 63 67 63
1 2 4 3 4 1 1 8 2 6 4 6 13 19 16 13 11 11 12 15 17 18 18 19 21 23 26 26 26 24 21 15 10 9 8 12 23 23 19 20 24 27 27 28 29 45 59 61 64
Wind_Direction
166 158 150 140 80 63 160 169 360 26 43 352 331 37 103 61 39 103 293 333 354 359 2 4 26 82 170 206 212 224 255 251 249 250 248 244 241 225 221 198 201 206 213 193 180 162 153 147 148
160 153 146 107 94 108 234 320 89 42 351 333 105 90 47 84 78 81 116 349 354 355 358 360 11 23 155 214 218 212 214 251 260 259 255 251 250 238 225 214 207 207 200 185 181 179 165 158 156
157 152 140 94 116 186 177 137 307 322 35 29 94 65 77 56 55 45 357 347 349 350 353 355 1 3 328 203 219 221 210 202 229 259 263 255 247 237 230 226 210 201 196 192 185 187 191 173 169
155 146 70 103 181 125 127 230 319 327 299 35 89 78 93 99 114 1 345 343 344 344 348 347 348 354 342 247 235 210 211 220 216 227 263 256 245 240 236 224 208 198 201 209 199 187 184 172 173
165 130 86 91 163 130 134 219 311 26 46 13 41 128 144 131 31 341 338 339 339 340 342 340 338 340 344 308 243 239 217 222 217 215 222 251 243 244 239 224 212 200 206 208 196 190 185 182 175
120 116 108 183 178 160 164 319 173 70 10 13 66 94 160 182 314 331 335 336 336 333 334 333 328 326 330 332 301 260 242 235 225 222 217 221 241 240 235 226 216 203 203 194 192 191 189 182 175
136 102 194 145 157 171 187 158 138 129 31 51 36 72 233 237 317 329 334 333 331 331 327 326 324 316 314 314 315 309 268 251 243 219 230 225 221 238 235 222 211 205 197 192 190 193 188 182 177
132 91 124 178 180 179 169 154 157 123 178 21 19 98 162 318 328 330 330 332 330 327 327 324 321 315 307 301 298 303 301 258 248 243 215 230 227 221 236 223 219 212 203 196 195 190 194 185 174
140 87 182 184 151 150 172 151 149 100 153 0 107 61 328 330 329 329 329 331 332 334 334 329 323 319 311 300 286 285 293 281 265 246 238 222 229 223 225 228 220 220 208 201 199 198 196 185 185
67 133 147 59 94 141 149 131 161 176 317 169 176 322 334 336 338 339 342 342 341 341 343 338 331 322 315 308 294 286 285 286 283 278 249 227 230 228 222 229 225 219 213 204 200 196 195 192 193
33 111 143 74 104 127 132 136 193 155 265 206 302 327 337 340 340 341 345 347 346 344 338 338 334 330 324 313 305 292 283 283 280 272 269 241 235 233 228 226 226 220 211 203 196 197 202 202 202
92 67 101 138 106 112 144 162 216 215 219 259 292 324 334 338 339 342 344 345 344 343 340 337 333 328 324 318 311 301 289 283 279 271 267 257 240 234 246 224 224 218 204 201 196 197 204 203 201
85 131 86 115 108 76 166 212 223 228 226 236 296 319 323 328 331 335 339 341 341 339 338 335 331 327 324 318 312 304 296 284 277 270 260 259 248 237 228 230 222 217 206 205 202 200 205 202 199
103 111 120 93 73 68 28 289 332 186 178 227 275 306 318 325 328 334 334 338 336 335 334 331 326 321 319 317 311 303 297 289 277 268 259 249 251 240 225 216 217 220 211 209 207 202 204 200 198
120 91 87 33 353 333 338 205 215 163 191 254 290 299 306 319 323 331 335 336 334 332 330 326 321 316 312 310 308 301 292 290 280 268 253 244 246 245 226 215 208 218 220 212 209 203 202 200 198
78 78 196 132 354 337 358 251 167 180 225 294 301 292 301 307 317 325 329 331 331 328 326 323 318 313 310 306 304 301 292 285 280 269 251 241 238 242 222 209 213 213 225 220 206 204 200 200 200
31 197 228 313 36 331 83 272 145 217 269 301 290 289 286 292 303 315 326 330 328 325 323 320 317 313 311 308 303 299 294 283 278 268 252 239 233 228 237 216 209 226 222 220 212 206 203 200 197
184 162 210 236 3 332 256 264 274 282 266 278 284 280 273 281 291 306 324 328 326 324 322 319 318 318 314 311 305 297 294 285 276 266 254 242 234 231 231 211 211 215 218 219 213 208 204 205 198
115 123 334 288 355 314 289 285 276 275 265 267 270 269 268 271 278 298 319 325 323 323 320 317 318 318 317 314 310 301 296 287 275 264 256 247 239 233 231 222 208 217 215 213 204 201 204 204 201
53 61 323 299 331 3 333 292 276 252 237 246 256 257 265 267 274 285 314 321 323 323 320 316 315 317 317 314 308 301 298 290 280 269 258 253 249 229 230 223 213 209 202 205 207 205 205 208 202
70 134 214 239 334 3 326 273 313 47 271 252 251 268 269 270 274 280 311 321 324 322 319 314 314 316 317 313 306 301 296 289 281 273 266 261 256 235 222 222 210 210 196 198 197 193 201 200 204
227 170 82 11 23 280 25 285 315 329 296 248 268 270 272 281 277 280 315 323 323 322 315 312 312 316 317 313 306 301 297 291 283 278 272 269 259 246 224 222 217 206 210 217 211 209 204 201 203
102 38 53 83 118 10 168 106 269 338 278 262 264 271 282 292 261 290 320 322 321 320 312 312 312 315 317 313 307 300 294 290 286 283 278 270 262 252 227 223 214 208 202 212 209 200 199 204 206
118 90 69 81 83 0 116 153 266 189 203 265 268 271 291 271 281 296 315 318 320 318 313 313 314 320 321 316 309 300 294 291 286 283 281 271 263 254 232 222 224 205 209 213 214 212 204 204 210
74 76 321 346 7 235 341 264 254 250 232 216 253 291 307 295 297 303 309 313 319 319 320 318 320 323 326 320 314 305 297 290 285 282 279 271 263 254 232 215 214 212 213 217 218 209 207 202 207
93 156 161 243 261 294 57 236 248 225 255 255 267 287 295 292 308 305 306 310 316 320 322 320 323 326 331 325 320 312 302 291 284 280 272 264 266 253 242 205 200 207 220 211 212 212 213 202 211
158 198 178 102 76 318 260 281 283 281 278 268 246 278 307 302 297 307 304 308 317 323 322 323 327 329 333 331 329 323 310 297 287 277 267 259 267 252 254 221 202 208 222 210 204 209 203 202 208
179 125 73 18 289 279 280 279 246 273 229 241 278 288 314 307 302 303 303 310 324 325 322 325 328 332 336 337 337 332 322 306 287 274 267 262 265 260 252 216 200 206 207 213 202 203 206 203 204
145 205 49 106 93 217 292 267 207 206 199 211 254 295 310 310 309 305 308 314 325 330 325 329 332 337 341 342 344 343 337 314 292 277 270 268 265 264 245 219 202 193 212 228 194 201 208 205 205
127 212 180 148 227 78 186 269 241 241 242 238 274 304 315 315 311 304 309 320 330 335 329 335 337 342 346 347 349 354 350 335 321 292 285 266 264 258 230 214 206 191 198 222 219 197 202 210 205
Height
1491 1492 1493 1496 1506 1509 1516 1514 1513 1514 1517 1520 1518 1518 1520 1528 1530 1533 1538 1539 1535 1532 1528 1527 1523 1522 1524 1524 1525 1528 1532 1533 1534 1536 1536 1537 1536 1538 1540 1540 1542 1544 1546 1546 1547 1547 1548 1549 1549
1490 1493 1495 1495 1508 1514 1514 1517 1517 1521 1522 1519 1519 1519 1522 1532 1533 1535 1537 1535 1534 1530 1528 1526 1523 1522 1522 1525 1525 1525 1527 1532 1534 1535 1535 1536 1537 1538 1539 1540 1542 1544 1546 1547 1547 1549 1549 1550 1550
1491 1493 1495 1501 1516 1509 1511 1521 1522 1522 1522 1518 1520 1521 1528 1533 1534 1535 1535 1534 1534 1531 1527 1525 1523 1523 1521 1523 1525 1524 1525 1525 1529 1533 1535 1535 1537 1539 1540 1540 1541 1544 1546 1547 1548 1549 1551 1551 1551
1490 1494 1499 1503 1508 1521 1520 1524 1524 1522 1521 1520 1520 1526 1531 1532 1533 1532 1534 1532 1531 1530 1525 1525 1524 1521 1520 1522 1523 1522 1524 1525 1525 1527 1533 1535 1536 1537 1540 1541 1541 1542 1545 1547 1549 1549 1551 1552 1553
1490 1490 1502 1509 1513 1523 1524 1524 1523 1522 1523 1523 1522 1526 1527 1529 1530 1531 1532 1531 1528 1528 1524 1524 1523 1522 1521 1521 1522 1524 1522 1524 1524 1524 1527 1534 1534 1536 1538 1540 1541 1542 1543 1546 1549 1549 1550 1552 1552
1489 1490 1502 1505 1514 1523 1524 1523 1522 1521 1521 1521 1523 1526 1529 1528 1530 1529 1528 1526 1526 1525 1522 1521 1520 1521 1520 1520 1520 1522 1522 1522 1524 1522 1524 1528 1532 1534 1535 1538 1540 1541 1542 1545 1548 1549 1550 1552 1553
1487 1492 1497 1504 1511 1518 1518 1520 1521 1520 1519 1521 1522 1525 1528 1528 1528 1527 1524 1523 1522 1520 1519 1518 1517 1518 1518 1518 1519 1519 1520 1520 1521 1521 1522 1525 1528 1533 1535 1536 1538 1540 1541 1544 1547 1549 1551 1552 1553
1487 1492 1504 1507 1508 1508 1515 1516 1519 1520 1521 1520 1521 1523 1526 1526 1524 1523 1522 1520 1518 1518 1516 1516 1515 1517 1515 1514 1516 1517 1516 1517 1519 1520 1520 1523 1525 1528 1533 1535 1537 1539 1541 1543 1544 1547 1550 1553 1554
1487 1493 1498 1503 1505 1508 1514 1515 1516 1517 1519 1520 1521 1523 1526 1524 1523 1521 1519 1518 1517 1516 1513 1511 1508 1507 1509 1511 1510 1512 1514 1514 1516 1517 1517 1518 1522 1525 1529 1532 1535 1538 1540 1542 1544 1546 1548 1550 1553
1488 1492 1497 1507 1508 1511 1513 1515 1516 1518 1517 1518 1519 1520 1521 1521 1519 1517 1513 1511 1510 1510 1509 1506 1506 1504 1503 1503 1505 1507 1508 1510 1512 1513 1513 1515 1516 1522 1525 1528 1531 1534 1537 1539 1542 1544 1545 1549 1552
1494 1499 1506 1509 1509 1511 1514 1515 1516 1517 1516 1515 1515 1516 1516 1516 1515 1514 1512 1510 1509 1508 1507 1505 1502 1501 1501 1501 1501 1501 1500 1503 1507 1510 1509 1510 1512 1517 1522 1523 1526 1529 1533 1536 1539 1542 1544 1546 1551
1499 1505 1506 1509 1511 1513 1515 1515 1516 1517 1516 1516 1515 1515 1514 1514 1514 1513 1510 1508 1506 1505 1504 1503 1502 1499 1496 1495 1494 1495 1495 1496 1500 1504 1506 1506 1509 1511 1515 1517 1521 1523 1527 1531 1532 1537 1542 1544 1548
1500 1506 1508 1509 1511 1514 1515 1515 1514 1513 1514 1515 1515 1513 1513 1513 1513 1513 1510 1508 1506 1504 1502 1501 1498 1495 1493 1491 1489 1488 1489 1490 1493 1495 1500 1500 1502 1506 1507 1509 1516 1520 1521 1526 1528 1533 1538 1542 1545
1502 1504 1508 1510 1511 1512 1513 1512 1512 1511 1512 1514 1514 1513 1512 1511 1512 1510 1507 1504 1503 1501 1498 1496 1494 1491 1488 1485 1485 1484 1484 1485 1485 1487 1491 1494 1495 1498 1501 1503 1506 1515 1518 1520 1525 1528 1534 1538 1542
1503 1507 1509 1511 1510 1511 1512 1511 1509 1508 1511 1512 1511 1509 1510 1509 1509 1506 1504 1501 1499 1498 1494 1493 1490 1488 1484 1481 1478 1477 1478 1476 1476 1478 1480 1485 1486 1490 1494 1494 1498 1506 1514 1515 1520 1525 1530 1534 1538
1505 1508 1506 1512 1512 1512 1512 1495 1506 1507 1509 1507 1507 1507 1505 1506 1505 1503 1502 1500 1497 1494 1490 1487 1485 1481 1478 1476 1472 1469 1468 1468 1468 1469 1470 1474 1477 1482 1484 1487 1494 1497 1505 1507 1511 1518 1522 1529 1534
1507 1501 1507 1509 1514 1513 1513 1500 1505 1507 1505 1502 1504 1503 1503 1503 1503 1501 1500 1496 1494 1490 1485 1482 1479 1475 1471 1469 1465 1461 1459 1460 1459 1460 1461 1464 1466 1471 1474 1479 1484 1488 1496 1499 1505 1512 1516 1522 1528
1500 1502 1513 1511 1516 1513 1512 1503 1504 1505 1499 1500 1500 1500 1500 1499 1499 1499 1496 1493 1489 1485 1480 1476 1473 1469 1466 1461 1458 1454 1452 1452 1452 1452 1453 1454 1456 1461 1465 1468 1473 1479 1486 1492 1498 1504 1512 1519 1523
1517 1518 1518 1514 1515 1513 1508 1505 1500 1498 1495 1496 1496 1496 1495 1495 1496 1495 1493 1489 1483 1480 1475 1472 1468 1465 1461 1456 1451 1447 1444 1443 1444 1445 1444 1443 1445 1450 1453 1458 1463 1468 1475 1480 1488 1492 1505 1514 1520
1513 1517 1513 1515 1516 1513 1511 1497 1492 1488 1488 1491 1492 1491 1491 1491 1491 1490 1488 1485 1479 1474 1470 1467 1465 1462 1457 1452 1447 1443 1437 1434 1432 1433 1435 1435 1434 1437 1442 1446 1449 1456 1462 1469 1474 1482 1500 1507 1512
1517 1518 1520 1520 1515 1515 1517 1492 1486 1484 1488 1489 1488 1486 1486 1485 1485 1485 1483 1479 1474 1470 1465 1464 1461 1456 1451 1446 1441 1436 1431 1426 1423 1423 1422 1424 1424 1425 1428 1434 1442 1447 1447 1457 1464 1473 1491 1499 1504
1511 1520 1519 1518 1522 1517 1527 1488 1484 1492 1491 1487 1480 1481 1481 1479 1479 1479 1476 1473 1469 1465 1463 1460 1455 1450 1446 1441 1435 1430 1424 1418 1416 1413 1412 1412 1415 1416 1418 1424 1432 1432 1438 1450 1457 1468 1484 1492 1494
1516 1519 1519 1526 1533 1534 1526 1523 1478 1496 1486 1480 1474 1477 1476 1475 1474 1474 1472 1468 1466 1461 1459 1454 1449 1445 1440 1434 1429 1423 1417 1412 1407 1406 1403 1403 1405 1406 1407 1412 1420 1427 1428 1437 1448 1457 1472 1479 1485
1519 1520 1524 1532 1537 1531 1524 1522 1475 1481 1479 1478 1473 1472 1472 1472 1471 1469 1467 1464 1461 1458 1454 1448 1443 1439 1434 1428 1423 1417 1411 1405 1400 1398 1395 1393 1396 1400 1402 1407 1412 1419 1420 1429 1439 1449 1458 1469 1478
1521 1521 1517 1508 1525 1498 1531 1524 1476 1479 1476 1472 1470 1468 1468 1468 1466 1464 1463 1460 1457 1453 1448 1443 1438 1433 1427 1421 1416 1410 1404 1398 1393 1390 1388 1386 1385 1388 1390 1395 1399 1405 1412 1419 1428 1438 1447 1461 1469
1528 1529 1513 1504 1507 1505 1530 1510 1465 1472 1470 1468 1468 1466 1465 1464 1463 1461 1459 1456 1453 1448 1442 1438 1433 1427 1422 1415 1409 1403 1397 1391 1386 1383 1381 1378 1378 1379 1380 1383 1389 1396 1403 1408 1420 1428 1438 1450 1460
1527 1528 1537 1546 1576 1537 1526 1507 1475 1468 1466 1464 1463 1463 1462 1460 1459 1457 1455 1452 1448 1443 1438 1434 1428 1423 1417 1410 1403 1396 1390 1384 1378 1376 1373 1372 1373 1373 1373 1375 1378 1388 1399 1401 1406 1416 1426 1437 1447
1527 1536 1526 1541 1517 1510 1511 1530 1468 1470 1463 1462 1460 1459 1458 1457 1455 1453 1450 1447 1443 1439 1434 1431 1425 1419 1413 1406 1399 1391 1383 1378 1373 1369 1366 1364 1366 1369 1367 1367 1373 1381 1389 1390 1393 1407 1419 1427 1435
1529 1526 1543 1543 1547 1512 1522 1473 1468 1460 1457 1457 1457 1456 1454 1452 1449 1448 1446 1443 1439 1435 1431 1426 1422 1415 1409 1402 1395 1386 1379 1373 1368 1364 1361 1358 1361 1360 1360 1363 1368 1375 1382 1389 1389 1398 1407 1419 1428
1525 1519 1520 1508 1527 1574 1552 1490 1460 1458 1457 1457 1454 1452 1450 1448 1446 1444 1443 1440 1436 1431 1428 1423 1418 1412 1406 1400 1392 1383 1376 1370 1364 1360 1356 1356 1355 1354 1353 1357 1363 1370 1378 1385 1392 1393 1398 1410 1418